Regional Weather Roundup
Issued by NWS Raleigh/Durham, NC

Home | Current Version | Previous Version | Text Only | Print | Product List | Glossary On
Versions: 1 2 3 4 5 6 7 8 9 10 11 12 13 14 15 16 17 18 19 20 21 22 23 24 25 26 27 28 29 30 31 32 33 34 35 36 37 38 39 40 41 42 43 44 45 46 47 48 49 50
000
ASUS42 KRAH 261110
RWRRAH
NORTH CAROLINA WEATHER ROUNDUP
NATIONAL WEATHER SERVICE RALEIGH NC
700 AM EDT WED JUL 26 2017

NOTE: "FAIR" INDICATES FEW OR NO CLOUDS BELOW 12,000 FEET WITH NO
SIGNIFICANT WEATHER AND/OR OBSTRUCTIONS TO VISIBILITY.

NCZ001-053-055-056-065-067-261200-
WESTERN NORTH CAROLINA

CITY           SKY/WX    TMP DP  RH WIND       PRES   REMARKS
ASHEVILLE      FOG       67  67 100 NW5       30.22R VSB 1/2
JEFFERSON      CLOUDY    62  60  93 CALM      30.29S
MORGANTON      RAIN      68  67  96 NE6       30.24R
HICKORY        LGT RAIN  71  68  90 NE6       30.19R
RUTHERFORDTON  CLOUDY    74  73  96 N5        30.17R
MOUNT AIRY     CLOUDY    71  62  74 NE7       30.23R
BOONE          CLOUDY    63  63  99 E3        30.29S
$$

NCZ021-022-025-041-071-084-088-261200-
CENTRAL NORTH CAROLINA

CITY           SKY/WX    TMP DP  RH WIND       PRES   REMARKS
CHARLOTTE      MOCLDY    75  69  81 NE9       30.15R
GREENSBORO     MOCLDY    71  68  90 E8        30.19R
WINSTON-SALEM  CLOUDY    71  65  81 NE8       30.20R
RALEIGH-DURHAM MOCLDY    74  64  71 NE5       30.18S
FORT BRAGG     MOCLDY    73  66  80 NE5       30.14R
FAYETTEVILLE   MOCLDY   N/A N/A N/A NE7       30.14R
BURLINGTON     CLEAR     71  65  81 CALM      30.18R
LAURINBURG       N/A    N/A N/A N/A MISG      30.14R
$$

NCZ011-015-027-028-043-044-047-080-103-261200-
NORTHEASTERN NORTH CAROLINA

CITY           SKY/WX    TMP DP  RH WIND       PRES   REMARKS
ROCKY MT-WILSO MOCLDY    70  67  90 NE3       30.17S
GREENVILLE     CLEAR     66  66 100 N5        30.17R
WASHINGTON       N/A     68  66  91 N3        30.15S
ELIZABETH CITY CLEAR     69  69 100 CALM      30.16R
MANTEO         CLEAR     74  68  79 E8        30.15R
CAPE HATTERAS  CLEAR     76  70  82 NE6       30.12S
$$

NCZ078-087-090-091-093-098-101-261200-
SOUTHEASTERN NORTH CAROLINA

CITY           SKY/WX    TMP DP  RH WIND       PRES   REMARKS
LUMBERTON      MOCLDY    74  69  85 NE7       30.13R
GOLDSBORO      PTCLDY    71  70  96 N6        30.14R
KINSTON        PTCLDY    72  66  83 N5        30.16R
KENANSVILLE    CLOUDY    73  66  78 NE5       30.14S
NEW BERN       MOCLDY    74  70  87 NE7       30.14R
CHERRY POINT   CLOUDY    77  70  79 NE6       30.13R
BEAUFORT       CLOUDY    77  72  84 NE7       30.12R
JACKSONVILLE   CLOUDY    75  71  87 N5        30.12R
WILMINGTON     CLOUDY    78  71  79 NE7       30.11R
$$




USA.gov is the U.S. government's official web portal to all federal, state and local government web resources and services.